User: anonymous   Login
Location: Newark
(49.4642°N, 2.1122°E)
Time: 10:32:53
(UTC+00:00)
Language:

EO-88 - Orbit

View from above orbital plane
View from above orbital plane
View from above satellite
View from above satellite

Ground track
Ground track

The orbit data is extracted from the following two-line orbital elements,

1 42017U 17008BX  20190.91856892 +.00001025 +00000-0 +41982-4 0  9996
2 42017 097.3588 258.1673 0004680 236.9040 123.1750 15.26547700188823
Epoch (UTC): 08 July 2020 22:02:44
Eccentricity: 0.0004680
inclination: 97.3588°
perigee height: 483 km
apogee height: 489 km
right ascension of ascending node: 258.1673°
argument of perigee: 236.9040°
revolutions per day: 15.26547700
mean anomaly at epoch: 123.1750°
orbit number at epoch: 18882

The dashed part of the orbit path shows where the satellite is in the earth's shadow,  

DLR